[[{"header":{"parameterUnit":"m.s-1","parameterCategory":1,"la1":30.2991,"la2":30.254,"lo1":-89.0895,"lo2":-89.0444,"dy":0.0017,"dx":0.0017,"nx":28,"ny":28,"refTime":"2024-02-22T09:00:00:Z","depth":0,"parameterNumber":2,"parameterNumberName":"U-component_of_WINDS"},"data":[0,0,0,0,0,0,0,0,0,0,0,0,0,0,0,0,0,0,0,0,0,0,0,0,0,0,0,0,0,0,0,0,0,0,0,0,0,0,0,0,0,0,0,0,0,0,0,0,0,0,0,0,0,0,0,0,0,0,1.5154,1.5154,0,1.5167,1.5167,1.5167,1.5107,1.5105,1.5103,1.5101,1.5124,1.5126,1.5128,0,0,0,0,0,0,0,0,0,0,0,0,0,1.5083,1.5085,1.5154,1.5154,1.5154,1.5167,1.5167,1.5167,1.5107,1.5105,1.5103,1.5101,1.5123,1.5126,1.5129,0,0,0,0,0,0,0,0,0,0,0,0,0,1.5107,1.5085,1.5154,1.5125,1.5123,1.5167,1.5167,1.5168,1.5107,1.5105,1.5102,1.51,1.5122,1.5126,1.5129,1.5204,0,0,1.5139,1.5141,0,0,0,0,0,0,0,0,1.5106,1.511,1.5129,1.5127,1.5124,1.5132,1.5151,1.518,1.5108,1.5114,1.5101,1.5098,1.5129,1.5132,1.5141,1.5205,1.5206,1.514,1.5142,1.5143,1.5144,0,0,0,0,0,0,0,1.5104,1.5109,1.5159,1.513,1.5127,1.5114,1.5115,1.5156,1.5137,1.5113,1.5108,1.511,1.5128,1.5138,1.5141,1.5206,1.514,1.5143,1.5145,1.5146,1.5334,1.5337,0,0,0,0,0,0,1.5105,1.5108,1.5159,1.516,1.5108,1.5118,1.5118,1.5133,1.5136,1.5134,1.5113,1.5108,1.5133,1.5137,1.5142,1.5231,1.5143,1.5146,1.5148,1.5331,1.5335,1.5338,0,0,0,0,0,0,1.5104,1.511,1.5158,1.5132,1.5138,1.5122,1.5139,1.5134,1.5144,1.5136,1.5133,1.5126,1.5131,1.5137,1.5189,1.5231,1.5148,1.5151,1.5328,1.5332,1.5337,1.541,0,0,0,0,0,0,1.5102,1.511,1.5137,1.5133,1.5139,1.5203,1.5141,1.5137,1.5149,1.5143,1.5147,1.5146,1.513,1.5184,1.5192,1.5234,1.5154,1.5324,1.533,1.5335,1.5404,1.5416,1.5427,0,0,0,0,0,1.51,1.5159,1.5138,1.5145,1.5172,1.5205,1.5209,1.5187,1.5153,1.5181,1.5175,1.5146,1.5224,1.519,1.5198,1.5242,1.5321,1.5328,1.5335,1.5398,1.5414,1.5427,0,0,0,0,0,0,1.5171,1.5158,1.5135,1.5194,1.5201,1.5195,1.523,1.5203,1.5222,1.5216,1.519,1.5191,1.5249,1.525,1.5212,1.5315,1.5267,1.5276,1.5313,1.5327,1.5339,1.5339,1.5157,0,0,0,0,0,1.5192,1.5218,1.5206,1.526,1.5264,1.5246,1.526,1.5242,1.5249,1.5253,1.5251,1.5262,1.5289,1.5308,1.5332,1.5402,1.5404,1.5437,1.5448,1.5458,1.5467,1.5506,1.5521,1.536,1.536,1.536,0,0,1.5239,1.5235,1.5254,1.5274,1.5277,1.5307,1.5249,1.5283,1.5307,1.5259,1.5308,1.5307,1.5317,1.5379,1.5406,1.5382,1.5511,1.5467,1.5474,1.5478,1.5515,1.553,1.5544,1.5364,1.5364,1.5363,0,0,1.534,1.5338,1.5382,1.5386,1.5391,1.5378,1.5389,1.5387,1.5384,1.5431,1.5397,1.5425,1.5471,1.548,1.5491,1.5594,1.5569,1.5603,1.5665,1.5704,1.5717,1.5728,1.5767,1.5781,1.5611,1.5611,1.5611,0,1.5398,1.5439,1.541,1.5446,1.5457,1.5411,1.5458,1.5464,1.5478,1.5488,1.5459,1.5517,1.5521,1.5585,1.561,1.5619,1.5633,1.5604,1.5716,1.5727,1.5738,1.5775,1.5789,1.5616,1.5615,1.5615,1.5614,0,1.5512,1.5541,1.5577,1.5588,1.5603,1.5645,1.5624,1.5642,1.5623,1.5614,1.5664,1.5666,1.5691,1.5704,1.5686,1.5767,1.5752,1.572,1.5672,1.5758,1.5793,1.5806,1.5622,1.562,1.5619,1.5618,0,0,1.566,1.5653,1.5667,1.5672,1.5673,1.5696,1.5736,1.5757,1.5775,1.5786,1.5821,1.5861,1.5831,1.5844,1.5826,1.586,1.5944,1.5824,1.5824,1.5849,1.6035,1.6061,1.6078,1.5925,1.5928,1.593,1.6035,0,1.5761,1.5826,1.58,1.5869,1.5898,1.5854,1.5889,1.5896,1.5888,1.5913,1.5906,1.5936,1.5893,1.5901,1.5931,1.5927,1.5982,1.5919,1.5961,1.5963,1.5963,1.6095,1.6123,1.6222,1.6048,1.6051,1.6052,0,1.5887,1.59,1.5971,1.5967,1.5978,1.601,1.6028,1.6051,1.6058,1.605,1.6063,1.6038,1.608,1.6029,1.6088,1.6046,1.6061,1.6062,1.6065,1.6071,1.6015,1.6108,1.6253,1.6269,1.6073,1.6071,1.607,0,1.5991,1.6026,1.6074,1.6079,1.6075,1.6099,1.6099,1.6103,1.6117,1.6133,1.6143,1.6164,1.6177,1.6196,1.6179,1.6143,1.6241,1.6188,1.6239,1.624,1.6265,1.6264,1.6418,1.627,1.627,1.627,1.6269,0,1.6108,1.6154,1.6121,1.615,1.6201,1.6171,1.6224,1.6219,1.6222,1.6252,1.6216,1.6246,1.6219,1.6248,1.6234,1.6287,1.6292,1.629,1.6286,1.6295,1.6296,1.6307,1.6301,1.6273,1.6273,1.6272,1.6271,0,1.6235,1.6213,1.6263,1.6254,1.6253,1.6291,1.6285,1.6314,1.6303,1.6341,1.6349,1.6333,1.6364,1.6347,1.638,1.6371,1.644,1.6426,1.6437,1.6435,1.6487,1.6484,1.6656,1.6679,1.6514,1.6515,1.6517,0,1.6312,1.6346,1.634,1.6356,1.6358,1.6384,1.6398,1.637,1.6387,1.6396,1.6425,1.6451,1.6472,1.6524,1.6517,1.6543,1.6531,1.6589,1.6535,1.6542,1.6535,1.6535,1.6539,1.6602,1.6604,1.6605,1.6606,0,1.6452,1.644,1.646,1.6476,1.6493,1.6505,1.6515,1.6531,1.6503,1.6524,1.6553,1.6569,1.6601,1.663,1.6651,1.6654,1.6628,1.6623,1.6637,1.6647,1.6654,1.6654,1.647,1.662,1.6619,1.6618,1.6617,1.6616,1.6559,1.6587,1.6588,1.6611,1.6615,1.6624,1.6651,1.6642,1.6665,1.6687,1.667,1.6706,1.6712,1.6738,1.6744,1.6774,1.6751,1.677,1.6776,1.6782,1.679,1.6646,1.6778,1.6777,1.6777,1.6776,1.6776,0,1.67,1.6697,1.6719,1.6732,1.6752,1.6719,1.6729,1.6748,1.6779,1.6786,1.6806,1.6841,1.6868,1.6862,1.6888,1.6913,1.6901,1.6921,1.692,1.6922,1.6808,1.6795,1.693,1.693,1.693,1.693,1.693,1.693,1.6776,1.6823,1.681,1.686,1.6857,1.689,1.6898,1.6908,1.6913,1.6953,1.6974,1.6969,1.6972,1.6997,1.7021,1.7019,1.7032,1.7057,1.7051,1.6945,1.693,1.6916,1.6903,1.7059,1.7059,1.7163,1.7164,1.7165]},{"header":{"parameterUnit":"m.s-1","parameterCategory":1,"la1":30.2991,"la2":30.254,"lo1":-89.0895,"lo2":-89.0444,"dy":0.0017,"dx":0.0017,"nx":28,"ny":28,"refTime":"2024-02-22T09:00:00:Z","depth":0,"parameterNumber":3,"parameterNumberName":"V-component_of_WINDS"},"data":[0,0,0,0,0,0,0,0,0,0,0,0,0,0,0,0,0,0,0,0,0,0,0,0,0,0,0,0,0,0,0,0,0,0,0,0,0,0,0,0,0,0,0,0,0,0,0,0,0,0,0,0,0,0,0,0,0,0,4.1782,4.1782,0,4.1735,4.1735,4.1734,4.1677,4.1676,4.1675,4.1674,4.1625,4.1624,4.1624,0,0,0,0,0,0,0,0,0,0,0,0,0,4.1821,4.1821,4.1782,4.1782,4.1781,4.1735,4.1735,4.1734,4.1677,4.1676,4.1675,4.1674,4.1625,4.1624,4.1624,0,0,0,0,0,0,0,0,0,0,0,0,0,4.1792,4.1821,4.1783,4.1747,4.1744,4.1735,4.1735,4.1734,4.1677,4.1676,4.1675,4.1673,4.1625,4.1624,4.1623,4.1646,0,0,4.1621,4.1621,0,0,0,0,0,0,0,0,4.1794,4.1791,4.1753,4.175,4.1746,4.1711,4.173,4.1704,4.1678,4.1702,4.1674,4.1673,4.1654,4.1651,4.1645,4.1643,4.1641,4.1621,4.1621,4.162,4.162,0,0,0,0,0,0,0,4.1796,4.1793,4.1764,4.1753,4.1748,4.1733,4.1728,4.1725,4.1686,4.17,4.1696,4.1691,4.1652,4.1646,4.1643,4.164,4.1621,4.162,4.162,4.162,4.1654,4.1655,0,0,0,0,0,0,4.1803,4.1795,4.1765,4.1762,4.1767,4.1734,4.1727,4.1723,4.1686,4.1679,4.1692,4.1689,4.1648,4.1644,4.1641,4.1665,4.162,4.162,4.1619,4.1652,4.1654,4.1656,0,0,0,0,0,0,4.1805,4.1801,4.1767,4.1777,4.1772,4.1734,4.173,4.1723,4.1717,4.168,4.1673,4.1694,4.1647,4.1642,4.1645,4.1663,4.1619,4.1619,4.1651,4.1653,4.1655,4.1713,0,0,0,0,0,0,4.1806,4.1802,4.1811,4.1778,4.1771,4.1772,4.1731,4.1723,4.1716,4.1711,4.1679,4.1673,4.1645,4.1646,4.1644,4.1661,4.1618,4.1649,4.1652,4.1654,4.1709,4.1716,4.1723,0,0,0,0,0,4.1808,4.1829,4.1812,4.1808,4.1782,4.1774,4.177,4.1738,4.1718,4.1726,4.1702,4.1674,4.1661,4.1647,4.1644,4.1661,4.1648,4.1651,4.1654,4.1706,4.1715,4.1723,0,0,0,0,0,0,4.1865,4.1824,4.1804,4.1816,4.1799,4.1764,4.1773,4.1748,4.1736,4.1732,4.1692,4.1686,4.1693,4.1677,4.1662,4.168,4.165,4.1653,4.1691,4.1699,4.1706,4.171,4.1617,0,0,0,0,0,4.1878,4.1876,4.184,4.1854,4.1846,4.1811,4.1806,4.1783,4.1764,4.1756,4.1733,4.1714,4.1706,4.1701,4.1691,4.1706,4.1698,4.1716,4.1722,4.1728,4.1731,4.1738,4.1745,4.1666,4.1665,4.1665,0,0,4.1907,4.1885,4.1885,4.1864,4.1848,4.1846,4.1806,4.1805,4.1803,4.1756,4.1757,4.1739,4.1716,4.1725,4.1727,4.1711,4.1751,4.1732,4.1737,4.1737,4.1741,4.1749,4.1756,4.1668,4.1667,4.1667,0,0,4.1959,4.1941,4.1951,4.1935,4.1912,4.1888,4.1891,4.1859,4.1846,4.1846,4.1811,4.1807,4.1794,4.1778,4.1769,4.1814,4.1787,4.1811,4.1848,4.1854,4.186,4.1866,4.1882,4.1888,4.1814,4.1814,4.1814,0,4.1998,4.1994,4.1959,4.196,4.1952,4.1909,4.1918,4.1905,4.1879,4.1874,4.1856,4.1838,4.1819,4.1824,4.1835,4.1828,4.1829,4.1815,4.1862,4.1867,4.1872,4.1887,4.1893,4.1817,4.1817,4.1817,4.1816,0,4.2043,4.204,4.205,4.2027,4.202,4.2025,4.199,4.1987,4.1963,4.1942,4.1942,4.1918,4.1903,4.1902,4.1879,4.1903,4.1894,4.187,4.1839,4.1883,4.1897,4.1902,4.1822,4.1821,4.182,4.1819,0,0,4.2131,4.2087,4.2092,4.208,4.205,4.2048,4.205,4.2035,4.2033,4.2016,4.2018,4.2006,4.1984,4.1973,4.1948,4.1954,4.1991,4.1929,4.1928,4.1942,4.2016,4.2035,4.2042,4.1973,4.1974,4.1974,4.2018,0,4.2178,4.2181,4.2149,4.2161,4.2158,4.2116,4.2119,4.21,4.2079,4.2073,4.205,4.2043,4.2013,4.2007,4.201,4.1986,4.2005,4.1982,4.1973,4.1974,4.1982,4.2049,4.2069,4.2112,4.2023,4.2024,4.2024,0,4.2233,4.222,4.2232,4.2201,4.2198,4.2201,4.2185,4.2179,4.2157,4.2141,4.2129,4.21,4.21,4.207,4.2069,4.2054,4.2048,4.2035,4.2036,4.2035,4.2003,4.2051,4.2125,4.2131,4.2032,4.2032,4.2031,0,4.2297,4.2282,4.2287,4.2279,4.2242,4.2245,4.223,4.2206,4.2199,4.2184,4.2179,4.2164,4.2157,4.2145,4.2113,4.2094,4.2115,4.2083,4.2102,4.2103,4.211,4.211,4.2185,4.2104,4.2104,4.2104,4.2104,0,4.2354,4.2363,4.2315,4.2319,4.2327,4.229,4.2299,4.2279,4.2258,4.2257,4.2219,4.2218,4.2175,4.2168,4.2143,4.2146,4.2142,4.2129,4.2122,4.2133,4.2135,4.213,4.2127,4.2106,4.2105,4.2105,4.2105,0,4.2428,4.2396,4.2399,4.2364,4.2356,4.2364,4.2333,4.2335,4.2311,4.2309,4.2306,4.2269,4.226,4.2226,4.2208,4.219,4.2202,4.2188,4.221,4.2206,4.2227,4.2226,4.2302,4.2311,4.2224,4.2225,4.2226,0,4.2467,4.2473,4.2439,4.2435,4.2422,4.2416,4.2409,4.2371,4.2365,4.2339,4.2343,4.2331,4.2319,4.2306,4.2277,4.2263,4.2249,4.2276,4.2247,4.2257,4.225,4.2251,4.2251,4.2284,4.2285,4.2286,4.2286,0,4.254,4.2524,4.2515,4.25,4.2492,4.2479,4.2463,4.2462,4.242,4.2415,4.2405,4.2396,4.2377,4.2365,4.2346,4.233,4.2301,4.2296,4.23,4.2311,4.2324,4.2318,4.2229,4.2295,4.2294,4.2293,4.2293,4.2292,4.2598,4.2601,4.2578,4.2569,4.2553,4.2539,4.2538,4.2514,4.2506,4.2488,4.2466,4.2459,4.2435,4.2406,4.2392,4.2385,4.2369,4.2375,4.2377,4.2379,4.2384,4.2324,4.2381,4.2381,4.2381,4.238,4.238,0,4.2669,4.2652,4.2644,4.2623,4.2616,4.2589,4.257,4.2566,4.2561,4.2541,4.253,4.2518,4.2506,4.2476,4.246,4.2461,4.2447,4.2458,4.2458,4.2455,4.2399,4.2397,4.2469,4.2469,4.2469,4.2469,4.2469,4.2469,4.2706,4.271,4.2691,4.2687,4.2669,4.2662,4.2653,4.264,4.2624,4.2613,4.2603,4.2583,4.2559,4.2541,4.2529,4.252,4.2516,4.2532,4.2519,4.2467,4.2459,4.2451,4.2449,4.2531,4.2531,4.2575,4.2576,4.2576]}]]